Location: Lamoine Observatory
(44.4551°N, 68.3470°W)
Time: 21:46:47
(UTC-04:00)

Daily predictions for brighter satellites

Satellite Brightness Start Highest point End
(mag) Time Altitude Azimuth Time Altitude Azimuth Time Altitude Azimuth
Cosmos 2061 Rocket 4.4 20:46:23 10° N 20:52:36 50° ENE 20:58:47 10° SSE
Cosmos 2173 Rocket 4.2 20:49:35 10° N 20:55:38 56° ENE 21:01:45 10° SSE
Cosmos 1184 Rocket 3.6 20:55:18 10° SSW 20:58:37 57° WNW 21:01:59 10° N
Cosmos 2297 Rocket 3.2 20:54:13 10° SW 20:59:44 54° WNW 21:05:19 10° NNE
Cosmos 1356 Rocket 3.7 20:57:46 10° S 21:01:53 51° E 21:06:04 10° NNE
H-2A R/B 3.2 20:59:09 10° SE 21:03:47 31° ENE 21:08:29 10° N
Cosmos 1741 Rocket 4.1 21:02:04 10° SSW 21:07:23 87° ESE 21:12:43 10° NNE
Cosmos 1818 4.0 21:03:06 10° NW 21:08:30 62° WSW 21:13:50 10° SSE
Cosmos 2263 Rocket 3.8 21:06:02 10° SE 21:09:06 15° E 21:12:11 10° ENE
YAOGAN 6 3.1 21:06:08 10° S 21:09:43 61° W 21:13:24 10° NNW
Meteor 2-17 Rocket 4.5 21:04:54 10° N 21:11:06 78° E 21:17:14 10° SSE
Meteor 1-21 Rocket 4.3 21:05:49 10° S 21:11:25 65° E 21:16:57 10° NNE
ATLAS 5 CENTAUR R/B 2.0 21:07:58 10° SW 21:12:39 80° NW 21:17:47 10° NE
Cosmos 1726 2.9 21:10:52 10° N 21:14:16 34° ENE 21:17:27 11° SE
RESURS DK-1 2.8 21:13:06 10° NNW 21:17:12 52° ENE 21:20:58 12° SE
Cosmos 1300 3.8 21:14:06 10° NNE 21:17:32 30° ENE 21:20:36 12° SE
Cosmos 1802 Rocket 4.0 21:13:59 10° N 21:20:08 74° E 21:26:17 10° SSE
Cosmos 1076 Rocket 3.5 21:15:49 10° S 21:20:11 86° E 21:24:34 10° N
SL-14 R/B 4.3 21:18:05 10° SSE 21:21:25 28° E 21:24:48 10° NNE
Cosmos 1408 Rocket 3.6 21:19:19 10° S 21:23:32 58° E 21:27:48 10° NNE
ERBS 2.9 21:27:03 10° NW 21:30:22 49° NE 21:33:11 13° ESE
Cosmos 2221 3.7 21:28:22 10° NNW 21:32:31 42° W 21:36:39 10° SSW
Cosmos 1603 3.7 21:29:54 10° NNW 21:35:36 84° ENE 21:40:30 14° SSE
Cosmos 2151 4.3 21:34:26 15° SE 21:36:59 24° E 21:40:28 10° NE
Tiangong 1 0.7 21:37:30 10° W 21:40:16 61° S 21:42:15 17° ESE
Cosmos 1814 Rocket 4.2 21:35:04 10° NNW 21:40:25 66° ENE 21:44:41 16° SSE
Cosmos 371 Rocket 3.4 21:38:38 10° NNW 21:43:26 66° ENE 21:47:09 17° SSE
Cosmos 1500 Rocket 4.3 21:40:57 16° SSE 21:44:03 35° E 21:48:07 10° NNE
Cosmos 1674 3.9 21:41:20 10° SSW 21:44:55 42° WNW 21:48:32 10° N
Cosmos 2016 Rocket 4.1 21:40:27 10° N 21:46:45 84° W 21:52:55 10° S
ARGOS 3.3 21:42:43 11° S 21:47:59 79° WSW 21:53:26 10° NNW
Cosmos 1486 Rocket 4.4 21:44:16 10° S 21:49:14 45° ESE 21:54:17 10° NNE
Cosmos 841 Rocket 3.9 21:44:57 10° NNW 21:50:05 50° ENE 21:53:48 18° SE
Cosmos 1943 3.5 21:45:09 10° NNW 21:50:45 58° ENE 21:54:57 18° SE
Cosmos 1455 4.1 21:48:05 10° NNE 21:50:47 18° ENE 21:52:33 14° ESE
CZ-3B R/B 4.3 21:47:45 10° SW 21:51:09 85° SE 22:04:17 10° NE
SPOT 5 3.0 21:47:02 13° S 21:51:26 78° WSW 21:56:36 10° NNW
Lacrosse 5 2.0 21:46:38 10° NW 21:51:41 68° SW 21:55:19 19° SSE
Cosmos 1763 Rocket 3.6 21:46:42 10° NNW 21:51:48 65° ENE 21:55:27 19° SE
SL-16 R/B 3.9 21:47:18 10° NW 21:51:58 27° WSW 21:56:35 10° SSW
CARTOSAT-1 4.3 21:52:19 18° SE 21:55:01 38° ENE 21:59:01 10° N
SPOT 1/Viking Rocket 3.5 21:54:30 16° SSE 21:58:42 90° ENE 22:03:53 10° NNW
Cosmos 1766 Rocket 4.3 21:56:43 10° SSW 22:00:56 51° WNW 22:05:13 10° N
Abrixas rocket 2.1 22:01:18 10° WNW 22:04:32 74° SSW 22:06:04 28° SE
Cosmos 1328 Rocket 3.6 22:00:22 10° N 22:04:43 78° W 22:07:53 18° S
USA 245 4.3 22:07:27 14° SSW 22:10:08 41° W 22:14:12 10° NNW
Cosmos 1515 Rocket 3.5 22:06:18 10° N 22:10:40 88° E 22:13:24 22° S
Cosmos 2233 Rocket 4.0 22:04:55 10° N 22:11:09 68° E 22:15:24 21° SSE
Cosmos 1151 Rocket 3.1 22:06:49 10° N 22:11:13 69° E 22:13:43 25° SSE
Landsat 7 3.8 22:08:35 21° SSE 22:11:45 83° ENE 22:16:33 10° NNW
IGS 5A 3.7 22:11:57 25° SE 22:14:09 56° ENE 22:18:15 10° N
USA 234 3.2 22:08:02 10° NE 22:14:35 75° SE 22:21:08 10° SW
H-2A R/B 2.5 22:13:53 25° SE 22:16:07 48° ENE 22:20:13 10° N
Cosmos 1743 Rocket 3.6 22:13:15 14° SSW 22:16:59 77° W 22:21:20 10° N
Cosmos 2228 Rocket 3.5 22:14:16 10° NNW 22:18:49 61° W 22:22:04 18° S
Cosmos 1703 3.5 22:22:24 30° SSE 22:24:06 54° E 22:28:01 10° NNE
Meteor 2-12 Rocket 4.4 22:20:09 10° N 22:26:14 75° E 22:30:01 24° SSE
Terra 1.8 22:24:00 26° SSE 22:26:42 82° ENE 22:31:29 10° NNW
Meteor 1-11 4.3 22:23:46 16° S 22:28:34 87° E 22:34:25 10° N
CZ-4 R/B 4.3 22:25:17 10° NNE 22:29:56 44° E 22:31:53 29° SSE
H-2A ROCKET BODY 4.2 22:29:46 10° SSW 22:34:39 26° SSE 22:49:09 10° E
Cosmos 1503 Rocket 4.0 22:32:17 24° S 22:35:15 58° ESE 22:40:21 10° NNE
Meteor 1-27 4.5 22:36:22 10° NNW 22:42:10 69° W 22:45:45 24° S
H-2A R/B 3.2 22:39:05 15° SSW 22:43:02 39° W 22:48:08 10° NNW
Cosmos 304 Rocket 3.7 22:40:00 10° NNW 22:44:49 82° ENE 22:46:52 35° SSE
Cosmos 1626 2.2 22:44:37 33° SSW 22:46:11 76° W 22:49:56 10° N
Cosmos 2058 3.2 22:44:53 24° SSW 22:47:20 65° W 22:51:33 10° N
CZ-4B R/B 3.7 22:44:04 10° NNE 22:49:17 56° E 22:51:29 32° SSE
Cosmos 540 Rocket 3.4 22:46:09 10° NNW 22:51:20 81° ENE 22:53:35 34° SSE
Cosmos 2263 Rocket 2.2 22:46:57 11° SSW 22:52:16 79° WNW 22:57:54 10° NNE
Cosmos 968 Rocket 4.5 22:53:13 27° ESE 22:54:15 29° E 22:58:46 10° NE
Spot 4 3.8 22:55:05 36° SSE 22:57:08 84° ENE 23:02:02 10° NNW
Cosmos 2285 Rocket 4.0 22:52:02 10° NNW 22:58:24 81° WSW 23:01:42 31° SSE
COSMOS 2406 4.1 22:54:23 10° NNW 22:59:43 40° ENE 23:02:50 22° ESE
Sich 1 3.4 22:59:55 40° SE 23:00:46 46° E 23:04:53 10° NNE
SL-24 R/B 4.4 23:00:13 44° SSE 23:01:29 84° ENE 23:05:42 10° NNW
Cosmos 2034 Rocket 4.3 22:57:36 10° N 23:03:53 58° ENE 23:06:49 31° SE
ERBS 4.3 23:04:22 10° W 23:06:28 18° WSW 23:06:28 18° WSW
deb Chang Zheng 4 3.8 23:03:04 10° N 23:07:25 70° WNW 23:09:31 30° SSW
PSLV R/B 3.7 23:09:22 43° W 23:09:22 43° W 23:12:04 10° NNW
Cosmos 1891 Rocket 4.4 23:03:48 10° N 23:09:53 71° E 23:12:33 35° SSE
ALOS 2 4.0 23:10:54 23° E 23:12:19 28° ENE 23:16:04 10° N
DELTA 2 DEB (DPAF) 4.1 23:11:06 44° S 23:12:29 83° WSW 23:16:59 10° NNW
Cosmos 1707 Rocket 3.5 23:08:07 10° N 23:12:38 86° E 23:13:54 47° SSE
CZ-2C R/B 3.9 23:12:52 28° ESE 23:15:29 45° ENE 23:20:51 10° N
Tiangong 1 3.6 23:13:07 10° W 23:13:24 12° W 23:13:24 12° W
Cosmos 1354 Rocket 4.5 23:16:06 18° SW 23:19:56 58° WNW 23:25:08 10° NNE
Cosmos 1844 Rocket 3.1 23:24:43 38° SE 23:25:58 44° ESE 23:31:14 10° NE
Cosmos 1455 3.4 23:23:05 10° NNW 23:26:36 33° W 23:27:33 29° WSW
Cosmos 1666 Rocket 3.5 23:28:28 48° SSW 23:29:41 84° W 23:34:10 10° N
CZ-4C R/B 2.2 23:28:14 42° S 23:29:46 57° ESE 23:35:36 10° NE
Cosmos 1464 Rocket 4.1 23:23:47 10° NNW 23:29:54 69° W 23:32:45 33° SSW
Cosmos 1933 3.9 23:29:20 10° N 23:33:17 45° ENE 23:33:50 42° ESE
Lacrosse 5 4.1 23:32:13 10° W 23:33:47 11° WSW 23:34:30 11° SW
Cosmos 1862 Rocket 4.0 23:32:25 10° N 23:36:40 47° ENE 23:37:30 42° ESE
Cosmos 1869 3.7 23:33:29 10° NNW 23:37:20 52° W 23:37:55 47° SW
Cosmos 1933 Rocket 4.0 23:38:43 43° ESE 23:39:11 45° E 23:43:20 10° NNE
Cosmos 1805 Rocket 4.5 23:39:13 28° SW 23:40:55 41° WNW 23:45:03 10° N
CZ-4B R/B 4.2 23:42:58 10° E 23:43:58 11° ENE 23:45:11 10° NE
Cosmos 1633 Rocket 3.2 23:44:55 49° SW 23:45:56 68° W 23:50:17 10° N
Cosmos 1315 Rocket 3.8 23:46:28 32° E 23:46:28 32° E 23:49:52 10° NNE
CZ-4C R/B 4.4 23:46:43 34° SW 23:47:37 38° W 23:51:44 10° NNW
SL-24 R/B - RUBIN 2 3.9 23:43:48 10° NW 23:49:24 86° NE 23:50:52 48° SE
Cosmos 1400 Rocket 2.7 23:49:33 68° SE 23:49:54 73° E 23:54:03 10° NNE
H-2A R/B 4.2 23:51:01 14° WSW 23:52:22 16° W 23:55:05 10° NW
SME Rocket 4.1 23:52:50 30° WSW 23:53:33 33° W 23:57:41 10° NNW
